Location: Beuvrequen
(50.8014°N, 1.6652°E)
Time: 20:21:15
(UTC+00:00)

Cosmos 2278 Rocket - Pass Details

Date: 16 October 2021
Orbit: 841 x 845 km, 71.0° (Epoch: 04 December)

Event Time Altitude Azimuth Distance (km) Brightness Sun altitude
Rises 19:39:02 0° 331° (NNW) 3,418 6.0 -25.9°
Reaches altitude 10° 19:42:14 10° 349° (NNW) 2,479 5.0 -26.3°
Enters shadow 19:45:47 19° 27° (NNE) 1,907 3.9 -26.9°
